USA 40 R/B DEB, 23359

Orbit data source: Space-Track

USA 40 R/B DEB, 23359 is space debris in LEO originally from a launch on Tue, 08 Aug 1989 UTC launched from the Air Force Eastern Test Range (AFETR). Debris objects in space refer to the collection of defunct objects orbiting the Earth. Examples of debris include non-operational satellites, rocket bodies, and fragments generated from explosions, collisions, or faulty payload assembly.

Loading next visibility...
Identifier
23359, 1989-061AF
Orbit
LEO
Country
Flag of USUS
Related business
Manufacturer
Unknown
Mission
Spacecraft
Bus & Motor
Unknown
Mass
Unknown
Launch date (UTC)
1989-08-08 (37 years ago)
Launch vehicle
Unknown
Launch site
Air Force Eastern Test Range (AFETR)
Object type
Payload
Rocket body
Debris
Shape & HBR
Unknown shape, 0.1 m
Radar Cross Section
Small (<0.1 m²)

Expand to show TLE details & history
Last TLE update: 3 days ago

TLE from 3 days ago
0 USA 40 R/B DEB
1 23359U 89061AF  26091.47879066  .00006443  00000-0  32836-2 0  9992
2 23359  56.8828 256.4619 2156050 318.2773  27.1889 10.55564281261522
Epoch: 2026-04-01T11:29Z
TLE epoch observation values (Epoch: 2026-04-01T11:29:27.513Z)
Latitude
-0.00003°
Longitude
-105.7438°
Altitude
834.539 km
Speed
8.072 km/s
True Right ascension
17h 05m 50s
True Declination
0° 00' 00"
Sunlit
Object was in daylight at epoch
Visualization orbit readout
Latitude
Unknown
Longitude
Unknown
Altitude
Unknown
Speed
Unknown
Apparent Right ascension
Unknown
Apparent Declination
Unknown
Sunlit
N/A
Visualization observer readout
Local Sidereal Time
19:08:04
Azimuth
Unknown
Elevation
Unknown
Doppler factor
Unknown
Orbital elements
Apogee altitude
4,292.513 km
Perigee altitude
507.327 km
Semi-major axis
8,778.057 km
Eccentricity
0.21561
Inclination
56.8828°
RAAN
256.4619°
Arg. of periapsis
318.2773°
True anomaly
41.8136°
Mean anomaly
27.1889°
Eccentric anomaly
34.11779°
Mean motion
2.63904 °/min
Orbital period
136.41 mins
BSTAR
0.0032836
Loading maneuver chart data...
Computing Atmospheric mass density...
Loading historical data...
Loading historical data...
Loading historical data...
Loading historical data...
Loading historical data...
Loading historical data...
Loading historical data...

Documentation

Showing up to 5 results
|